EW7948 Weather Reports


time (UTC)temp
F
wind
direction
speed
knots
gust
knots
rain 1hr
in
rain 24hr
in
rain mn
in
humidity
%
barometer
mb
20260507031525 59 153 3.5 7.8 0.00 0.02 0.02 22 1014.4
20260507030023 60 162 3.5 9.6 0.00 0.02 0.02 22 1013.8
20260507024521 60 141 6.1 9.6 0.00 0.02 0.02 21 1013.5
20260507023021 61 152 7.0 10.4 0.00 0.02 0.02 20 1013.3
20260507021520 62 138 5.2 12.2 0.00 0.02 0.02 21 1013.1
20260507020016 63 153 7.0 11.3 0.00 0.02 0.02 20 1012.8
20260507014515 64 153 7.0 13.0 0.00 0.02 0.02 19 1012.7
20260507013015 65 129 8.7 12.2 0.00 0.02 0.02 19 1012.5
20260507011512 66 169 4.3 9.6 0.00 0.02 0.02 20 1012.2
20260507010012 65 94 1.7 5.2 0.00 0.02 0.02 21 1012.1
20260507004512 66 55 2.6 7.8 0.00 0.02 0.02 21 1012.1
20260507003019 67 227 0.9 4.3 0.00 0.02 0.02 21 1012.1
20260507001518 66 256 3.5 6.1 0.00 0.02 0.02 21 1012.0
20260507000012 65 27 3.5 8.7 0.00 0.02 0.02 22 1011.9
20260506234509 66 327 0.0 7.8 0.00 0.02 0.02 22 1012.0
20260506233005 65 104 2.6 6.1 0.00 0.02 0.02 22 1012.0
20260506231603 64 57 1.7 9.6 0.00 0.02 0.02 23 1012.0
20260506230032 65 58 6.1 9.6 0.00 0.02 0.02 23 1011.9
20260506224618 64 219 1.7 7.0 0.00 0.02 0.02 24 1012.2
20260506223015 63 263 1.7 13.9 0.00 0.02 0.02 25 1012.1
20260506221510 63 21 3.5 11.3 0.00 0.02 0.02 25 1012.4
20260506220024 63 76 6.1 10.4 0.00 0.02 0.02 25 1012.5
20260506214502 62 49 8.7 16.5 0.00 0.02 0.02 25 1012.7
20260506213005 62 55 5.2 14.8 0.00 0.02 0.02 25 1012.7
20260506211501 61 38 8.7 13.0 0.00 0.02 0.02 26 1012.8
20260506210019 61 63 7.8 18.2 0.00 0.02 0.02 26 1012.6
20260506204521 60 71 6.1 14.8 0.00 0.02 0.02 26 1012.8
20260506203027 60 45 7.8 13.9 0.00 0.02 0.02 27 1012.8
20260506201523 60 5 8.7 13.9 0.00 0.02 0.02 26 1012.7
20260506200021 59 23 13.0 19.1 0.00 0.02 0.02 26 1012.8
20260506194501 59 42 8.7 16.5 0.00 0.02 0.02 28 1012.8
20260506193109 58 48 10.4 18.2 0.00 0.02 0.02 29 1012.7
20260506191511 58 47 11.3 15.6 0.00 0.02 0.02 28 1012.6
20260506190020 58 27 11.3 17.4 0.00 0.02 0.02 30 1012.8
20260506184527 58 40 9.6 20.9 0.00 0.02 0.02 31 1012.7
20260506183110 57 72 12.2 18.2 0.00 0.02 0.02 31 1012.5
20260506181600 57 58 13.0 18.2 0.00 0.02 0.02 31 1012.5
20260506180055 56 57 8.7 18.2 0.00 0.02 0.02 32 1012.3
20260506174552 56 44 12.2 18.2 0.00 0.02 0.02 33 1012.5
20260506173050 56 30 7.8 18.2 0.00 0.02 0.02 34 1012.1
20260506171556 55 67 9.6 20.9 0.00 0.02 0.02 36 1011.8
20260506170047 56 26 12.2 16.5 0.00 0.02 0.02 38 1011.3
20260506164544 55 45 12.2 16.5 0.00 0.02 0.02 40 1011.1
20260506163044 55 5 9.6 15.6 0.00 0.02 0.02 43 1010.8
20260506161539 54 25 9.6 14.8 0.00 0.02 0.02 45 1010.6
20260506160037 53 24 8.7 12.2 0.00 0.02 0.02 48 1010.5
20260506154536 53 39 7.8 12.2 0.00 0.02 0.02 51 1010.3
20260506153014 51 19 7.8 13.0 0.00 0.02 0.02 52 1010.1
20260506151521 50 17 8.7 11.3 0.00 0.02 0.02 55 1009.7
20260506150010 49 21 7.8 13.0 0.00 0.02 0.02 55 1009.3
20260506144508 49 17 7.0 11.3 0.00 0.02 0.02 58 1009.3
20260506143007 48 38 10.4 14.8 0.00 0.02 0.02 58 1009.1
20260506141505 48 24 10.4 15.6 0.00 0.02 0.02 60 1009.0
20260506140003 47 36 9.6 13.9 0.00 0.02 0.02 66 1008.6
20260506134501 46 5 7.8 13.9 0.00 0.02 0.02 70 1008.5
20260506133104 45 30 10.4 15.6 0.01 0.02 0.02 72 1008.3
20260506131556 44 5 7.0 11.3 0.01 0.02 0.02 77 1008.0
20260506130055 44 19 9.6 15.6 0.02 0.02 0.02 78 1007.7
20260506124555 44 360 9.6 19.1 0.02 0.02 0.02 76 1007.4
20260506123048 44 32 9.6 18.2 0.01 0.01 0.01 78 1006.9
20260506121545 45 16 12.2 22.6 0.01 0.01 0.01 77 1006.3
20260506120045 46 26 16.5 28.7 0.00 0.00 0.00 73 1006.0
20260506114536 52 24 9.6 16.5 0.00 0.00 0.00 63 1005.2
20260506113040 52 5 4.3 7.8 0.00 0.00 0.00 67 1004.4
20260506111530 52 340 2.6 5.2 0.00 0.00 0.00 60 1004.3
20260506110033 53 340 1.7 3.5 0.00 0.00 0.00 58 1004.1
20260506104525 53 340 0.9 4.3 0.00 0.00 0.00 57 1003.7
20260506103030 54 341 1.7 4.3 0.00 0.00 0.00 58 1003.4
20260506101528 54 5 2.6 7.0 0.00 0.00 0.00 58 1003.1
20260506100029 53 331 2.6 7.0 0.00 0.00 0.00 58 1003.1
20260506094519 53 320 6.1 9.6 0.00 0.00 0.00 59 1002.9
20260506093018 53 348 2.6 5.2 0.00 0.00 0.00 59 1002.8
20260506091515 52 22 2.6 5.2 0.00 0.00 0.00 60 1002.6
20260506090013 51 32 0.0 1.7 0.00 0.00 0.00 60 1002.6
20260506084510 52 32 1.7 3.5 0.00 0.00 0.00 59 1002.5
20260506083010 52 32 0.0 1.7 0.00 0.00 0.00 55 1002.4
20260506081506 53 32 0.9 3.5 0.00 0.00 0.00 56 1002.6
20260506073001 53 40 1.7 3.5 0.00 0.00 0.00 54 1002.4
20260506071559 54 49 0.9 5.2 0.00 0.00 0.00 52 1002.4
20260506061554 55 69 2.6 5.2 0.00 0.00 0.00 52 1001.9
20260506044540 59 16 7.0 11.3 0.00 0.00 0.00 48 1001.5
20260506043038 60 360 5.2 9.6 0.00 0.00 0.00 46 1001.3
20260506041539 60 19 6.1 9.6 0.00 0.00 0.00 47 1001.0
20260506040039 60 22 4.3 8.7 0.00 0.00 0.00 47 1000.6
20260506034543 59 17 5.2 8.7 0.00 0.00 0.00 47 1000.5
20260506033043 59 46 4.3 7.8 0.00 0.00 0.00 48 1000.2